Regional Weather Roundup
Issued by NWS Tiyan, Guam

Home | Current Version | Previous Version | Text Only | Print | Product List | Glossary On
Versions: 1 2 3 4 5 6 7 8 9 10 11 12 13 14 15 16 17 18 19 20 21 22 23 24 25 26 27
000
ASGM40 PGUM 202212
RWRGUM
WEATHER ROUNDUP FOR THE MARIANAS
NATIONAL WEATHER SERVICE TIYAN GU
800 AM CHST FRI JUL 21 2017

GUZ001>004-202300-
MARIANA ISLANDS-

CITY           SKY/WX    TMP DP  RH WIND       PRES   REMARKS
GUAM AIRPORT   SUNNY     84  79  84 E10       29.88R HX  96
ANDERSEN AFB   MOSUNNY   82  77  83 E12       29.89R HX  91
ROTA AIRPORT   MOSUNNY   81  77  89 E6        29.87S
TINIAN AP      MOSUNNY   84  77  79 E9        29.86R HX  94
SAIPAN AP      MOSUNNY   88  75  66 E12       29.87R HX  97

$$





USA.gov is the U.S. government's official web portal to all federal, state and local government web resources and services.